User: anonymous   Login
Location: Bagnara
(41.0500°N, 14.7833°E)
Time: 23:11:07
(UTC+00:00)
Language:

Cosmos 1570 Rocket - Orbit

View from above orbital plane
View from above orbital plane
View from above satellite
View from above satellite

Ground track
Ground track

The orbit data is extracted from the following two-line orbital elements,

1 15032U 84056B   21263.27815806 -.00000010  00000-0  56673-5 0  9999
2 15032  74.0687 111.2398 0018222 242.1208 117.8099 14.34843933949823
Epoch (UTC): 20 September 2021 06:40:32
Eccentricity: 0.0018222
inclination: 74.0687°
perigee height: 762 km
apogee height: 788 km
right ascension of ascending node: 111.2398°
argument of perigee: 242.1208°
revolutions per day: 14.34843933
mean anomaly at epoch: 117.8099°
orbit number at epoch: 94982

The dashed part of the orbit path shows where the satellite is in the earth's shadow,  

DLR